• In Belarus
  • List of Countries
  • For 7 days
  • Water Temperature
  • Satellite Maps
  • Weather Map
  • Weather Widgets
  • user-avatar
    Login

    Hourly Weather Barra

    Today, 20 February, Wednesday

    Time Temperature Precipitation Wind Pressure Humidity
    00:00 +28°C° 0 mm 1 mps 744 mmHg 70%
    01:00 +28°C° 0 mm 1 mps 744 mmHg 72%
    02:00 +27°C° 0 mm 1 mps 744 mmHg 71%
    03:00 +27°C° 0 mm 2 mps 743 mmHg 70%
    04:00 +26°C° 0 mm 2 mps 744 mmHg 79%
    05:00 +26°C° 0 mm 2 mps 744 mmHg 78%
    06:00 +27°C° 0 mm 2 mps 744 mmHg 76%
    07:00 +27°C° 0 mm 2 mps 744 mmHg 74%
    08:00 +30°C° 0 mm 3 mps 744 mmHg 63%
    09:00 +34°C° 0 mm 3 mps 744 mmHg 52%
    10:00 +38°C° 0 mm 3 mps 744 mmHg 41%
    11:00 +39°C° 0 mm 3 mps 743 mmHg 33%
    12:00 +42°C° 0 mm 4 mps 743 mmHg 26%
    13:00 +44°C° 0 mm 4 mps 743 mmHg 19%
    14:00 +44°C° 0 mm 4 mps 742 mmHg 19%
    15:00 +44°C° 0 mm 3 mps 742 mmHg 18%
    16:00 +44°C° 0 mm 3 mps 741 mmHg 18%
    17:00 +40°C° 0 mm 2 mps 742 mmHg 27%
    18:00 +36°C° 0 mm 2 mps 742 mmHg 36%
    19:00 +32°C° 0 mm 2 mps 742 mmHg 45%
    20:00 +31°C° 0 mm 2 mps 742 mmHg 45%
    21:00 +30°C° 0 mm 1 mps 742 mmHg 45%
    22:00 +29°C° 0 mm 1 mps 743 mmHg 45%
    23:00 +29°C° 0 mm 1 mps 743 mmHg 43%

    Tomorrow, 21 February, Thursday

    Time Temperature Precipitation Wind Pressure Humidity
    00:00 +28°C° 0 mm 2 mps 742 mmHg 41%
    01:00 +28°C° 0 mm 2 mps 742 mmHg 40%
    02:00 +27°C° 0 mm 2 mps 742 mmHg 38%
    03:00 +27°C° 0 mm 2 mps 742 mmHg 37%
    04:00 +27°C° 0 mm 2 mps 742 mmHg 35%
    05:00 +27°C° 0 mm 3 mps 742 mmHg 35%
    06:00 +27°C° 0 mm 3 mps 743 mmHg 35%
    07:00 +27°C° 0 mm 3 mps 743 mmHg 36%
    08:00 +30°C° 0 mm 3 mps 743 mmHg 31%
    09:00 +34°C° 0 mm 3 mps 744 mmHg 27%
    10:00 +37°C° 0 mm 3 mps 744 mmHg 23%
    11:00 +38°C° 0 mm 2 mps 744 mmHg 20%
    12:00 +40°C° 0 mm 2 mps 743 mmHg 17%
    13:00 +41°C° 0 mm 2 mps 743 mmHg 14%
    14:00 +41°C° 0 mm 2 mps 742 mmHg 15%
    15:00 +41°C° 0 mm 2 mps 741 mmHg 16%
    16:00 +41°C° 0 mm 2 mps 741 mmHg 17%
    17:00 +37°C° 0 mm 2 mps 741 mmHg 26%
    18:00 +34°C° 0 mm 2 mps 741 mmHg 36%
    19:00 +29°C° 0 mm 1 mps 742 mmHg 45%
    20:00 +28°C° 0 mm 1 mps 742 mmHg 48%
    21:00 +27°C° 0 mm 1 mps 743 mmHg 50%
    22:00 +25°C° 0 mm 0 mps 744 mmHg 53%
    23:00 +26°C° 0 mm 1 mps 743 mmHg 54%

    Day after tomorrow, 22 February, Friday

    Time Temperature Precipitation Wind Pressure Humidity
    00:00 +26°C° 0 mm 1 mps 743 mmHg 55%
    01:00 +25°C° 0 mm 1 mps 743 mmHg 56%
    02:00 +25°C° 0 mm 1 mps 743 mmHg 53%
    03:00 +24°C° 0 mm 1 mps 742 mmHg 50%
    04:00 +24°C° 0 mm 2 mps 742 mmHg 47%
    05:00 +23°C° 0 mm 2 mps 742 mmHg 46%
    06:00 +23°C° 0 mm 2 mps 743 mmHg 45%
    07:00 +23°C° 0 mm 2 mps 743 mmHg 44%
    08:00 +26°C° 0 mm 2 mps 744 mmHg 39%
    09:00 +30°C° 0 mm 2 mps 744 mmHg 35%
    10:00 +33°C° 0 mm 1 mps 744 mmHg 30%
    11:00 +35°C° 0 mm 2 mps 744 mmHg 33%
    12:00 +36°C° 0 mm 2 mps 743 mmHg 36%
    13:00 +36°C° 0 mm 3 mps 743 mmHg 40%
    14:00 +35°C° 0 mm 3 mps 743 mmHg 47%
    15:00 +35°C° 0 mm 3 mps 742 mmHg 55%
    16:00 +34°C° 0 mm 3 mps 742 mmHg 63%
    17:00 +31°C° 0 mm 3 mps 742 mmHg 71%
    18:00 +29°C° 0 mm 2 mps 743 mmHg 79%
    19:00 +28°C° 0 mm 2 mps 743 mmHg 86%
    20:00 +28°C° 0 mm 2 mps 744 mmHg 87%
    21:00 +28°C° 0 mm 1 mps 744 mmHg 88%
    22:00 +28°C° 0 mm 1 mps 745 mmHg 88%
    23:00 +27°C° 0 mm 1 mps 745 mmHg 90%

    23 February, Saturday

    Time Temperature Precipitation Wind Pressure Humidity
    00:00 +27°C° 0 mm 1 mps 745 mmHg 92%
    01:00 +26°C° 0 mm 1 mps 744 mmHg 94%
    02:00 +26°C° 0.1 mm 1 mps 744 mmHg 94%
    03:00 +26°C° 0.1 mm 1 mps 744 mmHg 95%
    04:00 +26°C° 0.1 mm 1 mps 744 mmHg 96%
    05:00 +26°C° 0 mm 1 mps 744 mmHg 95%
    06:00 +26°C° 0 mm 1 mps 745 mmHg 95%
    07:00 +26°C° 0 mm 1 mps 745 mmHg 95%
    08:00 +28°C° 0 mm 1 mps 745 mmHg 83%
    09:00 +31°C° 0 mm 1 mps 745 mmHg 71%
    10:00 +34°C° 0 mm 2 mps 746 mmHg 60%
    11:00 +35°C° 0 mm 2 mps 745 mmHg 57%
    12:00 +35°C° 0 mm 3 mps 744 mmHg 54%
    13:00 +36°C° 0 mm 3 mps 744 mmHg 51%
    14:00 +35°C° 0 mm 3 mps 743 mmHg 56%
    15:00 +34°C° 0 mm 3 mps 743 mmHg 62%
    16:00 +33°C° 0 mm 3 mps 743 mmHg 67%
    17:00 +31°C° 0 mm 3 mps 743 mmHg 72%
    18:00 +29°C° 0 mm 2 mps 744 mmHg 77%
    19:00 +28°C° 0 mm 2 mps 744 mmHg 82%
    20:00 +27°C° 0 mm 2 mps 745 mmHg 84%
    21:00 +27°C° 0 mm 2 mps 745 mmHg 87%
    22:00 +27°C° 0 mm 2 mps 746 mmHg 90%
    23:00 +26°C° 0 mm 2 mps 746 mmHg 91%

    24 February, Sunday

    Time Temperature Precipitation Wind Pressure Humidity
    00:00 +26°C° 0 mm 2 mps 746 mmHg 92%
    01:00 +26°C° 0 mm 2 mps 745 mmHg 93%
    02:00 +26°C° 0.1 mm 1 mps 745 mmHg 94%
    03:00 +25°C° 0.1 mm 1 mps 745 mmHg 95%
    04:00 +25°C° 0.1 mm 1 mps 745 mmHg 96%
    05:00 +25°C° 0.5 mm 1 mps 745 mmHg 95%
    06:00 +25°C° 0.5 mm 1 mps 746 mmHg 94%
    07:00 +25°C° 0.5 mm 1 mps 746 mmHg 93%
    08:00 +28°C° 0 mm 1 mps 746 mmHg 81%
    09:00 +31°C° 0 mm 1 mps 747 mmHg 69%
    10:00 +33°C° 0 mm 1 mps 747 mmHg 57%
    11:00 +35°C° 0 mm 2 mps 746 mmHg 52%
    12:00 +36°C° 0 mm 2 mps 746 mmHg 47%
    13:00 +37°C° 0 mm 2 mps 745 mmHg 42%
    14:00 +36°C° 0 mm 3 mps 745 mmHg 47%
    15:00 +35°C° 0 mm 3 mps 745 mmHg 52%
    16:00 +34°C° 0 mm 3 mps 745 mmHg 57%
    17:00 +31°C° 0 mm 3 mps 745 mmHg 66%
    18:00 +29°C° 0 mm 2 mps 746 mmHg 75%
    19:00 +28°C° 0 mm 1 mps 746 mmHg 84%
    20:00 +27°C° 0.1 mm 1 mps 747 mmHg 87%
    21:00 +27°C° 0.1 mm 1 mps 747 mmHg 89%
    22:00 +26°C° 0.1 mm 1 mps 748 mmHg 92%
    23:00 +26°C° 0.4 mm 1 mps 747 mmHg 93%

    25 February, Monday

    Time Temperature Precipitation Wind Pressure Humidity
    00:00 +26°C° 0.4 mm 1 mps 747 mmHg 94%
    01:00 +25°C° 0.4 mm 1 mps 747 mmHg 95%
    02:00 +25°C° 0.1 mm 1 mps 747 mmHg 96%
    03:00 +25°C° 0.1 mm 1 mps 747 mmHg 97%
    04:00 +25°C° 0.1 mm 1 mps 747 mmHg 97%
    05:00 +25°C° 0 mm 1 mps 747 mmHg 96%
    06:00 +26°C° 0 mm 1 mps 748 mmHg 95%
    07:00 +26°C° 0 mm 1 mps 749 mmHg 94%
    08:00 +28°C° 0.1 mm 1 mps 749 mmHg 84%
    09:00 +30°C° 0.1 mm 1 mps 749 mmHg 75%
    10:00 +32°C° 0.1 mm 1 mps 749 mmHg 65%
    11:00 +32°C° 0.1 mm 1 mps 748 mmHg 62%
    12:00 +34°C° 0.1 mm 2 mps 748 mmHg 58%
    13:00 +34°C° 0.1 mm 3 mps 747 mmHg 55%
    14:00 +34°C° 0 mm 3 mps 747 mmHg 56%
    15:00 +34°C° 0 mm 3 mps 747 mmHg 58%
    16:00 +33°C° 0 mm 3 mps 747 mmHg 59%
    17:00 +31°C° 0 mm 2 mps 747 mmHg 66%
    18:00 +29°C° 0 mm 2 mps 747 mmHg 73%
    19:00 +27°C° 0 mm 2 mps 748 mmHg 80%
    20:00 +27°C° 0 mm 1 mps 748 mmHg 83%
    21:00 +26°C° 0 mm 1 mps 749 mmHg 86%
    22:00 +26°C° 0 mm 1 mps 749 mmHg 89%
    23:00 +26°C° 0.1 mm 1 mps 749 mmHg 90%
    Show more